User: anonymous   Login
Location: Veyrier
(46.1830°N, 6.2000°E)
Time: 11:50:29
(UTC+02:00)
Language:

Iridium 98 - Orbit

View from above orbital plane
View from above orbital plane
View from above satellite
View from above satellite

Ground track
Ground track

The orbit data is extracted from the following two-line orbital elements,

1 27451U 02031B   17114.89018715 +.00000229 +00000-0 +72376-4 0  9990
2 27451 086.3989 044.4712 0002344 082.0927 343.6115 14.35764933783643
Epoch (UTC): 24 April 2017 21:21:52
Eccentricity: 0.0002344
inclination: 86.3989°
perigee height: 771 km
apogee height: 774 km
right ascension of ascending node: 44.4712°
argument of perigee: 82.0927°
revolutions per day: 14.35764933
mean anomaly at epoch: 343.6115°
orbit number at epoch: 78364

The dashed part of the orbit path shows where the satellite is in the earth's shadow,  

DLR